Theta_e
338 338 338 338 338 338 338 338 338 338 338 337 336 335 335 335 334 333 333 333 333 332 331 329 328 328 328 328 328 328 328 327 328 328 326 324 325 324 323 322 321 321 320 318 315 313 315 316 310 306 306 305 305 305 303 303 303 302 301 301 301 302 303
338 338 338 339 339 339 338 338 338 338 337 336 335 334 334 333 333 332 332 332 332 331 330 328 327 327 327 328 327 327 328 326 326 328 327 325 325 326 324 321 320 319 317 317 314 311 314 318 316 311 307 304 304 304 303 304 303 301 301 302 302 303 304
338 338 338 338 338 338 338 338 338 337 336 334 333 333 332 332 331 331 330 329 329 329 329 328 326 326 326 327 327 327 327 326 325 325 326 326 326 326 326 322 320 317 315 313 312 310 310 312 314 311 307 305 304 303 304 304 303 302 302 303 303 304 303
338 338 338 338 338 338 338 338 337 336 335 333 332 332 331 330 329 328 328 327 327 327 326 326 325 325 326 326 326 326 326 326 325 324 324 325 325 325 324 322 320 319 317 315 313 313 311 310 312 311 307 305 304 304 306 304 303 303 303 303 303 303 302
338 338 338 337 337 337 337 337 335 334 333 332 331 331 329 329 328 327 326 325 325 324 323 324 324 324 324 324 324 324 324 324 324 323 321 321 322 323 321 319 317 317 318 317 315 315 313 311 313 311 306 306 306 306 307 306 304 304 303 303 302 301 301
337 337 337 338 338 337 337 336 334 332 331 331 330 330 328 328 327 326 325 324 323 322 322 323 324 324 324 323 323 322 322 321 320 319 317 316 316 317 318 316 314 313 314 313 313 313 313 311 310 308 306 307 307 307 308 306 303 303 302 301 301 300 300
337 337 337 337 338 337 336 335 334 332 331 330 330 329 328 327 326 325 324 324 322 321 321 321 322 322 322 322 321 321 320 319 317 315 314 313 312 311 312 312 311 311 311 310 310 310 311 310 309 309 307 306 306 306 307 305 302 302 302 302 301 299 298
337 337 337 337 337 337 336 335 334 332 331 331 330 328 327 326 325 324 323 322 321 320 320 320 320 320 319 319 318 318 318 317 315 313 312 312 311 310 310 310 310 309 308 308 308 308 309 309 308 308 308 307 306 304 303 303 302 302 301 302 302 299 297
337 337 337 337 337 336 336 336 334 333 332 331 329 327 326 325 324 323 322 321 320 319 318 318 317 317 315 315 315 316 316 315 313 312 312 311 311 310 310 309 308 308 307 306 306 306 307 307 307 307 307 307 307 306 305 304 303 302 300 300 300 299 297
336 337 336 336 336 335 335 335 334 332 332 330 329 327 325 324 323 323 322 320 319 318 317 316 315 314 312 312 313 313 314 313 312 312 311 311 310 310 309 308 307 307 305 305 304 304 304 304 305 306 306 306 306 308 310 308 304 302 301 299 298 298 297
336 336 336 336 335 333 333 333 333 332 331 330 328 326 325 324 323 322 321 320 318 317 315 314 313 312 310 310 311 312 312 312 311 310 310 309 309 308 307 307 306 305 304 303 303 302 302 302 302 303 305 305 305 306 308 307 304 302 301 299 297 296 296
336 336 336 335 334 333 332 331 331 331 330 329 327 326 324 323 322 321 320 319 318 316 314 313 312 311 310 310 310 311 311 310 309 309 308 308 307 306 306 305 304 303 303 302 302 302 302 301 301 301 301 302 302 303 303 304 304 302 299 298 296 294 294
336 336 336 335 334 333 332 331 331 330 330 328 326 325 324 323 322 321 320 319 317 316 314 312 311 311 310 309 310 310 309 309 308 307 306 306 305 305 304 304 303 303 302 302 302 302 302 302 301 300 300 299 299 300 299 300 302 301 298 296 295 294 294
336 335 335 334 334 333 332 331 330 330 329 328 326 324 323 323 323 322 320 319 317 316 313 312 310 310 309 309 309 309 308 308 307 306 305 305 304 303 303 303 303 303 303 303 303 303 302 302 302 301 301 300 299 299 298 297 299 299 297 295 295 294 294
335 335 334 334 334 333 332 331 330 330 329 327 326 324 324 323 322 322 320 318 317 315 313 312 310 309 308 308 309 308 307 307 306 305 304 303 302 302 302 303 303 303 303 303 303 303 302 302 302 302 301 300 300 298 297 296 297 297 296 296 295 295 295
335 335 334 334 333 332 331 331 330 330 329 328 326 325 324 323 322 321 319 318 316 315 313 311 309 309 308 307 307 307 307 306 305 304 303 302 302 302 302 303 303 303 303 303 302 302 302 302 302 301 300 300 299 297 296 295 295 296 297 297 296 296 297
335 335 334 333 333 332 331 331 330 329 329 328 326 325 323 323 322 320 318 317 316 314 312 310 309 308 307 306 306 306 306 305 304 304 302 302 302 303 303 303 303 303 303 303 303 302 302 302 301 301 300 299 297 295 295 296 296 297 298 298 297 297 297
335 335 334 333 332 331 331 330 329 328 328 327 326 324 323 322 321 320 318 317 315 313 311 309 308 307 307 306 306 305 305 305 304 303 302 302 303 304 303 303 303 303 303 303 303 303 302 302 301 301 299 296 295 295 297 299 299 299 299 298 298 297 297
334 334 334 333 332 331 330 329 328 328 328 327 326 324 323 322 321 319 318 316 315 313 310 308 308 307 306 306 305 305 304 304 303 303 303 304 304 304 303 303 303 303 303 302 303 303 303 302 302 300 296 295 296 298 299 300 300 300 300 299 298 298 298
334 334 333 333 332 331 330 329 328 328 328 327 325 324 322 322 320 319 318 316 314 312 310 308 307 306 306 306 306 305 305 304 304 304 305 305 305 304 303 303 303 303 302 302 302 302 302 302 301 297 295 296 299 300 300 301 301 301 300 300 298 298 298
334 333 333 332 332 330 329 328 328 328 328 326 325 324 322 321 320 318 317 315 313 311 309 308 307 307 306 305 305 305 304 304 304 305 305 304 304 304 304 304 303 303 303 302 301 301 300 300 298 295 296 299 300 300 301 301 301 301 300 299 299 298 298
334 333 332 331 331 330 328 328 328 328 327 325 324 324 322 321 319 317 315 314 312 311 309 308 307 307 306 305 305 305 304 304 305 304 304 303 303 303 304 304 304 304 304 303 301 299 298 299 297 295 296 300 300 300 301 301 301 301 300 299 298 298 298
333 332 332 331 331 330 328 327 326 326 326 325 324 323 321 320 319 317 315 313 312 310 309 308 307 306 306 305 306 305 304 304 305 304 304 304 303 304 304 304 304 304 304 303 299 295 295 297 296 295 297 300 301 301 301 301 302 301 299 298 298 298 298
333 332 331 330 330 329 328 326 325 324 324 323 323 322 321 319 318 317 315 313 312 310 309 308 307 306 306 306 306 305 304 304 304 304 304 304 304 304 304 304 304 303 302 301 297 293 293 295 295 296 298 300 301 302 301 301 302 300 298 298 298 298 298
332 331 330 329 329 328 327 324 323 323 323 322 322 320 319 318 317 316 315 314 313 311 309 308 307 306 306 306 306 306 305 304 304 304 303 304 304 304 304 304 304 301 298 296 294 293 294 295 296 296 297 300 302 302 301 302 301 298 297 298 298 298 298
332 331 329 329 328 327 326 323 322 323 323 323 321 318 317 318 317 316 315 314 313 311 309 308 307 307 307 306 306 306 305 305 304 303 303 303 304 304 304 304 303 299 295 293 294 294 296 297 296 295 295 299 302 301 301 302 300 298 297 299 299 298 298
331 330 329 328 327 326 325 324 323 323 323 322 319 316 317 318 316 315 315 314 313 311 310 309 307 307 307 306 306 306 306 305 304 303 303 304 304 304 303 303 303 301 298 295 293 294 296 298 297 295 295 300 302 301 301 301 299 297 298 299 299 299 299
331 329 328 328 327 325 325 323 323 322 322 320 318 317 318 318 316 316 316 314 313 311 310 309 307 307 307 306 306 306 306 305 304 304 304 304 304 304 303 303 303 302 302 299 295 296 298 299 299 298 297 299 302 301 301 301 299 297 298 299 299 299 299
330 329 328 327 326 325 324 323 322 321 320 319 318 317 317 317 316 317 315 313 313 311 310 309 308 307 307 306 306 306 305 305 305 304 304 304 304 304 303 303 303 303 304 302 299 299 301 301 301 301 298 297 298 300 301 301 299 297 298 299 299 299 299
329 328 327 327 325 324 323 322 322 321 319 317 316 316 316 316 317 317 315 312 312 311 310 309 308 307 307 306 306 306 305 305 305 304 304 304 304 304 304 303 303 303 304 303 301 301 302 302 302 302 300 297 295 297 301 301 298 297 298 299 299 299 299
329 328 327 327 326 325 324 323 322 320 319 318 317 316 316 315 316 316 314 312 311 310 310 309 308 308 307 307 306 305 305 305 305 304 304 304 304 304 304 304 304 303 304 304 303 302 302 302 302 301 302 299 294 295 300 300 298 297 299 299 299 299 299
329 327 327 327 327 325 323 322 321 319 318 318 317 315 314 315 315 314 313 311 311 310 310 309 308 308 307 307 306 305 305 305 305 304 304 305 304 304 304 304 304 304 304 304 304 303 303 302 302 301 302 299 294 294 297 298 298 298 299 299 299 299 299
328 327 328 329 327 324 323 321 318 317 317 317 316 314 314 314 313 312 311 311 310 310 310 309 308 307 307 306 305 304 305 306 305 305 305 305 305 304 303 304 305 305 305 304 304 304 303 302 302 302 300 297 293 293 295 297 298 299 299 299 299 299 299
328 327 328 327 325 323 322 320 317 317 317 316 315 314 313 312 311 310 310 310 309 309 310 309 308 307 307 306 304 304 305 305 305 305 306 305 304 303 303 305 305 305 305 304 304 304 303 303 302 302 301 297 294 293 294 296 298 299 299 299 299 299 300
328 327 327 325 323 322 320 318 316 317 316 314 313 312 311 310 311 311 310 309 309 309 309 309 309 307 306 305 304 305 305 305 305 305 306 305 304 303 304 305 306 306 305 304 304 304 303 303 302 301 302 299 295 293 294 295 297 298 299 299 299 299 299
327 326 325 324 323 321 318 316 316 316 315 313 311 310 310 310 311 310 309 308 308 308 309 309 308 307 306 305 305 305 305 305 305 306 306 305 304 303 305 305 305 305 305 304 304 304 303 303 302 301 301 299 295 293 294 295 296 298 298 299 299 299 299
326 324 322 321 320 318 316 315 314 313 313 312 311 310 310 309 309 308 308 307 307 307 308 308 307 307 307 306 305 305 305 305 305 306 306 305 304 304 305 305 305 305 304 304 304 304 304 303 303 302 300 297 294 293 294 295 296 297 298 299 299 299 299
Wind_Speed
29 27 28 28 28 28 27 25 23 22 20 18 18 18 20 21 21 20 18 17 16 15 15 15 15 15 16 16 16 17 17 17 19 21 22 22 19 17 15 12 8 6 6 6 7 6 4 2 5 7 9 10 10 10 8 5 2 2 3 3 3 2 4
29 28 28 28 28 28 27 25 23 23 21 19 19 19 21 21 20 19 17 16 16 16 17 16 15 15 16 16 16 16 16 16 17 19 20 22 21 18 16 14 10 7 7 6 7 8 4 3 3 4 7 9 8 10 10 6 4 3 3 2 1 3 5
28 28 28 28 28 27 26 24 23 23 22 21 20 20 20 19 18 18 16 16 15 16 17 17 15 15 16 16 16 16 16 16 16 18 19 19 20 19 18 16 13 10 8 5 8 9 4 3 2 3 8 10 7 9 11 9 6 4 2 1 3 3 3
31 30 29 28 28 27 26 25 24 24 23 22 22 21 20 19 18 17 15 15 14 15 16 17 16 16 16 16 16 16 16 17 16 17 18 18 18 19 18 17 16 14 12 9 11 13 9 4 3 3 8 10 8 6 7 9 9 5 2 1 3 3 4
34 33 32 31 30 29 29 28 26 26 25 24 23 22 21 19 18 16 15 14 14 14 14 15 15 15 15 16 15 15 15 16 16 16 17 17 18 19 17 16 16 15 15 13 13 15 13 10 7 5 6 8 7 5 4 7 8 4 3 5 6 6 5
35 35 34 33 33 32 31 29 28 28 27 26 25 24 23 21 19 17 16 15 14 14 14 14 14 14 14 14 14 14 14 14 15 15 16 16 16 16 16 15 14 14 14 12 11 13 13 12 10 7 6 5 4 4 3 5 9 8 8 9 8 6 5
35 35 34 35 35 34 32 31 31 31 30 29 28 26 24 22 20 17 15 14 14 14 14 14 14 14 14 14 14 14 14 13 14 14 14 14 13 12 13 13 13 12 12 10 9 10 11 11 12 12 9 5 4 5 5 7 11 9 5 5 7 8 6
36 35 35 35 36 35 33 31 32 32 31 30 28 26 24 22 20 18 16 14 15 15 15 15 15 14 14 14 14 14 14 14 14 14 13 12 12 11 11 12 12 11 10 9 8 8 9 9 11 15 15 8 5 4 4 6 8 7 4 2 2 7 8
35 35 35 35 35 36 35 33 33 33 32 30 28 26 24 22 20 18 16 15 15 16 16 15 15 14 14 14 14 14 14 14 14 14 13 12 12 11 11 11 11 10 8 8 7 7 9 9 9 13 17 15 9 3 2 3 4 5 6 3 2 6 9
36 36 35 35 35 37 36 34 34 34 33 31 29 27 25 23 20 19 17 16 16 16 16 15 14 14 13 14 14 14 14 14 14 14 13 13 12 12 11 11 10 10 8 8 7 7 7 8 9 12 14 14 12 7 3 2 1 1 5 7 5 6 8
37 36 36 35 35 36 35 34 35 35 33 31 29 27 25 23 21 19 18 17 17 16 16 15 14 13 13 13 13 13 14 15 15 14 14 13 13 12 12 11 10 11 10 9 9 9 8 8 8 9 10 10 11 10 9 5 2 1 4 7 8 8 8
36 36 36 35 35 36 35 34 35 34 33 31 29 28 26 24 22 20 18 18 17 17 16 15 14 14 13 13 14 14 14 15 15 15 14 13 13 13 13 13 13 13 12 11 11 10 9 9 9 9 9 8 8 9 12 9 4 2 3 7 8 8 9
36 36 36 36 36 35 35 35 35 34 33 31 30 29 27 25 23 21 20 19 18 17 17 16 15 15 14 14 15 15 16 16 16 16 15 14 14 14 15 15 15 14 14 13 13 12 11 10 9 9 9 10 11 9 11 12 9 5 5 7 7 7 8
37 36 36 36 36 35 35 35 35 34 33 32 31 30 28 26 24 22 21 20 19 18 18 17 17 16 15 16 16 17 17 17 17 16 16 16 15 15 16 17 17 16 15 14 13 12 12 10 9 9 8 9 12 11 11 15 13 8 6 7 7 7 7
37 36 36 36 35 35 35 34 34 34 34 33 32 31 29 27 25 23 22 21 20 19 18 18 18 17 17 17 18 18 18 18 18 18 18 17 17 18 19 19 19 17 16 15 14 13 12 11 9 9 8 8 10 10 10 13 13 9 6 7 7 8 7
37 37 36 36 35 35 34 34 34 34 35 34 33 31 30 28 26 24 23 22 21 19 19 19 19 19 18 19 19 20 19 19 19 19 19 20 20 21 21 21 19 17 16 15 15 13 12 11 9 8 8 6 8 10 10 10 12 10 7 6 8 9 8
38 37 36 36 35 35 35 34 34 35 35 34 34 32 30 28 26 25 24 23 22 20 20 20 20 20 19 19 20 21 21 20 20 20 20 21 22 22 21 21 19 18 16 16 15 14 12 11 9 8 8 6 7 10 11 11 11 11 9 7 7 8 8
38 39 38 36 35 35 35 35 35 35 35 35 34 33 31 29 27 26 26 24 23 21 21 21 21 21 20 20 20 21 21 21 21 21 21 22 22 21 21 21 20 18 17 16 16 14 12 10 9 7 7 8 10 11 12 12 11 11 9 8 7 7 8
38 39 38 37 36 36 35 35 36 36 35 35 35 34 32 30 28 27 26 25 23 22 22 22 22 21 21 21 21 21 21 21 22 22 22 21 20 20 20 19 18 18 17 16 16 14 12 10 9 8 9 12 12 12 12 11 10 9 8 7 7 7 8
38 38 38 37 37 36 35 35 36 36 36 35 36 35 33 31 29 28 27 25 24 23 23 23 22 22 22 22 22 22 22 22 23 22 21 20 20 20 19 18 17 16 15 14 14 13 12 10 9 10 12 13 13 11 10 9 8 7 7 7 6 7 8
37 37 37 37 37 36 36 36 37 37 36 36 36 36 34 32 30 29 27 26 24 24 24 24 24 23 23 23 23 23 23 23 23 22 21 20 19 20 19 17 16 15 13 11 10 11 12 11 11 13 14 13 11 10 9 8 7 6 6 6 6 6 8
36 37 36 37 37 36 36 37 38 37 37 37 37 36 34 32 31 30 28 26 25 25 25 25 24 24 24 24 24 23 23 23 23 22 21 20 19 19 18 17 15 13 12 9 8 9 11 11 11 13 13 12 10 9 7 6 5 5 5 5 5 6 8
36 36 36 37 38 38 37 37 38 37 37 37 37 35 34 33 32 31 29 27 26 26 26 25 25 24 25 25 24 23 23 24 23 22 22 20 20 19 18 16 14 12 11 9 8 9 11 11 11 11 11 10 9 7 6 5 5 4 4 5 5 5 7
36 37 36 37 38 39 39 38 38 37 37 37 37 36 35 35 33 32 30 29 28 27 27 26 25 25 25 25 25 25 24 24 24 22 21 21 21 20 18 15 13 11 10 10 9 11 13 12 11 10 9 8 7 5 5 5 4 4 4 4 4 4 6
36 37 37 37 38 39 37 36 37 37 37 37 37 37 36 35 34 32 31 29 28 28 27 26 25 26 26 26 25 25 25 24 24 23 21 21 21 20 18 16 13 11 10 11 12 13 12 11 9 8 7 7 6 4 3 4 4 4 4 4 4 5 6
35 36 37 37 38 38 36 35 36 38 39 39 37 36 35 34 34 33 31 30 29 29 27 27 26 27 27 26 26 26 25 24 24 23 22 22 22 21 18 16 14 11 10 12 13 12 10 10 8 6 6 7 6 3 3 4 4 4 4 4 4 5 7
36 36 37 37 37 37 37 37 38 40 40 39 36 34 35 36 35 33 32 31 30 30 28 27 27 27 27 27 27 26 25 24 25 24 23 24 23 20 18 16 14 12 12 13 13 12 10 9 8 5 6 8 6 3 4 5 4 3 4 3 4 6 7
35 36 37 37 37 37 39 40 41 41 41 39 37 37 38 38 36 34 34 33 32 31 30 29 28 28 28 28 27 27 25 25 25 24 24 24 22 20 18 16 15 14 13 13 13 12 10 9 7 4 5 7 7 5 6 5 3 2 3 2 3 6 7
36 37 38 38 37 37 39 40 40 41 40 38 37 38 39 39 37 36 35 34 34 33 31 30 29 28 28 28 28 27 25 24 24 25 25 23 21 19 17 16 16 15 14 12 12 11 10 8 6 3 3 5 6 7 7 6 3 3 3 1 2 5 6
35 36 38 38 38 39 40 40 40 40 38 35 35 37 39 38 37 37 36 36 35 34 33 31 30 30 29 29 29 28 25 25 25 25 24 23 22 20 17 16 16 16 15 13 12 11 11 8 7 5 3 4 6 8 9 7 4 4 3 1 1 4 5
37 37 38 39 40 42 42 42 42 42 39 37 37 39 39 38 36 36 37 37 36 35 34 33 32 31 30 31 31 28 26 26 27 25 23 23 22 20 18 17 16 16 16 15 13 13 12 10 8 6 5 4 5 8 9 8 5 5 5 3 1 2 3
36 38 40 41 42 42 42 42 39 37 36 36 36 36 35 35 35 35 35 36 36 35 34 33 33 32 31 32 31 28 26 28 28 26 25 24 23 20 19 20 19 18 18 17 15 14 13 12 10 7 6 6 6 7 9 9 7 7 7 5 3 1 2
34 38 43 44 42 39 37 34 30 30 32 32 32 32 34 35 34 33 33 34 35 35 34 33 34 34 32 33 32 28 27 29 29 27 26 26 24 22 21 21 21 21 20 19 17 15 14 13 11 9 7 6 6 6 8 9 8 7 6 5 4 3 4
34 37 42 42 39 37 35 30 28 32 35 33 32 33 33 31 30 30 31 33 34 35 34 33 34 35 34 33 32 29 29 30 30 28 28 27 25 23 21 21 21 20 20 20 18 16 15 14 13 11 9 6 5 6 8 9 8 7 6 5 5 5 5
37 39 39 38 35 33 32 29 30 34 34 30 30 30 29 29 30 29 30 31 33 34 34 33 34 35 35 33 31 30 30 30 30 29 28 27 25 22 21 20 19 19 19 20 18 16 14 14 13 12 10 7 6 7 8 9 9 8 7 6 6 6 6
36 36 36 38 37 35 32 30 31 33 32 28 26 26 26 28 30 29 29 30 31 33 34 34 35 35 34 32 31 30 29 29 28 28 28 26 23 22 22 21 19 18 18 19 19 16 14 13 13 12 10 8 8 8 8 9 9 9 8 8 8 8 8
36 35 32 33 34 34 32 31 32 32 31 29 28 27 26 27 28 27 27 27 28 30 32 34 35 35 33 31 30 30 29 28 27 27 26 24 21 21 23 22 20 18 17 17 18 16 15 15 14 11 10 9 8 9 9 9 9 9 10 10 10 11 11
Wind_Direction
197 197 200 203 206 207 207 209 211 213 214 215 215 210 204 203 206 208 210 214 221 230 236 237 234 231 227 221 216 217 220 218 216 214 209 206 206 208 210 214 227 236 208 194 199 184 144 175 219 214 210 208 211 214 209 197 181 149 125 115 91 48 9
199 198 199 200 200 203 205 206 207 208 209 210 209 206 202 204 208 212 216 221 228 236 240 240 238 233 229 225 221 220 221 220 220 221 219 215 213 214 212 211 215 210 198 199 201 190 149 130 199 222 206 201 209 210 205 191 168 164 152 132 42 359 354
194 195 195 194 196 200 201 201 202 205 204 202 201 202 203 205 211 216 220 224 229 234 237 238 235 231 228 226 227 226 226 225 223 222 224 224 222 221 220 217 209 195 188 184 186 188 172 130 153 208 197 191 198 206 208 200 175 173 204 280 334 348 14
190 191 189 188 192 196 196 197 200 202 202 200 199 202 205 208 214 218 220 221 223 227 230 231 230 228 226 226 228 229 229 230 229 227 225 225 223 220 222 223 219 214 209 208 205 201 196 171 143 174 192 193 198 194 199 205 201 210 252 350 54 74 72
192 190 188 188 192 196 195 195 196 197 198 199 200 203 206 210 215 217 217 217 219 220 221 222 222 223 224 225 227 228 230 231 232 230 225 222 221 219 220 222 224 224 220 223 224 215 211 205 184 163 167 184 199 194 186 201 203 194 125 103 90 79 62
194 192 190 190 195 198 196 194 194 194 195 196 199 203 207 211 216 219 219 219 220 219 216 215 218 221 225 228 229 228 228 230 229 228 223 220 220 221 222 219 217 218 217 221 224 217 214 207 188 160 143 157 175 172 160 145 137 124 113 101 76 55 44
194 192 191 193 197 198 198 197 197 197 197 199 201 204 207 210 215 218 220 220 220 218 215 215 219 224 228 232 233 229 225 224 222 219 217 214 212 212 213 210 206 207 209 209 208 208 209 206 194 171 145 111 96 119 119 123 128 121 114 103 61 38 35
195 192 193 196 198 197 199 201 202 202 204 205 205 206 207 209 211 212 213 216 217 216 216 218 221 226 230 231 229 225 219 215 212 209 208 206 202 197 196 197 196 193 196 197 195 201 203 205 204 185 163 135 86 74 85 112 118 99 88 152 55 27 28
194 192 193 196 197 198 202 206 207 207 208 208 208 207 207 207 209 209 210 213 216 216 218 220 223 227 230 228 222 217 212 207 205 203 201 198 194 190 188 190 190 185 183 187 188 195 199 199 202 194 180 165 146 110 60 96 108 81 67 75 56 21 21
194 193 194 195 197 199 202 205 208 207 208 209 209 208 207 208 210 212 212 214 215 217 219 220 223 226 226 223 216 212 207 201 200 199 197 193 188 187 185 183 184 178 170 173 175 176 184 188 190 193 197 190 172 154 134 133 185 116 63 49 38 16 11
194 194 195 196 197 198 197 200 205 206 207 209 209 208 208 209 211 213 215 216 216 217 219 220 221 222 220 215 210 208 203 199 196 193 191 190 185 183 180 175 175 170 163 163 161 154 150 151 160 171 188 202 197 182 161 142 138 129 69 45 34 15 4
193 194 195 197 197 197 197 199 202 204 206 208 208 207 207 208 211 212 214 218 217 217 218 218 218 218 215 211 205 202 198 196 194 187 184 186 185 183 177 169 166 162 159 158 151 141 136 133 133 138 147 157 167 177 166 144 125 116 70 46 37 20 7
192 194 195 197 198 199 200 201 202 203 205 206 206 206 206 208 211 213 215 217 217 216 215 214 214 215 212 209 205 200 194 191 191 185 180 182 182 180 175 166 163 160 159 157 149 143 138 133 130 124 127 129 121 127 145 133 121 125 93 56 43 30 18
192 194 195 197 199 200 201 201 201 202 204 205 206 205 206 209 212 214 215 216 216 215 214 212 211 211 208 206 202 199 193 189 189 185 181 180 178 177 174 166 161 161 162 159 151 150 145 139 136 124 116 120 112 106 118 120 117 126 113 74 54 42 30
191 193 195 197 199 200 201 201 200 201 203 205 207 207 208 208 210 214 215 215 215 214 215 213 211 209 206 203 199 195 193 189 188 185 182 179 175 173 172 168 164 164 167 164 156 154 152 146 145 134 122 119 111 102 104 112 116 117 105 78 58 50 49
190 192 195 196 198 199 200 201 201 202 203 205 207 208 210 209 210 212 213 213 213 213 213 213 210 207 206 204 198 194 193 191 189 187 183 178 174 172 170 169 168 167 168 166 160 157 157 154 153 145 132 120 107 100 97 108 116 112 101 79 54 52 61
189 192 194 196 197 198 200 201 200 201 203 204 205 207 209 210 211 212 211 211 210 211 212 210 208 206 206 205 200 195 192 192 193 191 185 179 175 174 174 172 171 171 171 167 161 161 161 159 159 153 139 124 110 105 103 107 109 105 98 81 59 55 56
190 191 194 195 197 197 198 199 198 199 201 203 204 205 206 208 210 211 211 210 211 211 212 209 206 204 203 203 201 197 194 193 195 192 187 182 179 179 180 178 174 176 178 172 166 166 168 164 162 159 146 129 118 115 113 106 99 93 85 71 63 60 48
190 191 192 194 195 196 196 197 196 197 200 203 204 204 205 207 210 211 211 212 212 211 210 208 206 204 202 201 201 199 196 195 196 193 187 184 184 185 185 183 180 182 186 182 175 173 173 171 169 161 146 133 125 122 116 106 96 87 76 64 60 54 41
191 191 191 192 193 195 195 195 196 197 201 204 203 203 205 206 209 210 212 212 211 210 208 206 206 204 202 201 201 199 197 197 197 194 190 189 190 193 193 191 187 185 188 189 185 183 182 179 171 158 146 137 132 127 118 108 99 86 72 64 57 45 34
191 190 190 190 191 193 194 195 196 198 200 202 204 204 205 205 207 209 211 211 209 208 207 205 204 204 202 202 202 200 198 198 196 192 190 192 194 197 197 194 190 186 188 192 194 194 192 186 172 158 150 144 140 132 122 111 100 86 71 63 59 42 29
190 189 189 188 189 192 194 194 195 196 198 201 203 204 205 206 206 207 208 208 208 207 206 205 205 204 203 202 201 199 198 198 195 191 189 191 194 195 194 192 189 188 192 196 198 195 193 189 180 166 157 153 148 137 125 113 101 90 75 68 62 42 25
187 187 187 187 187 190 194 193 193 193 196 199 201 203 203 204 206 206 205 205 206 206 206 206 206 206 205 203 200 198 198 197 194 193 193 191 191 192 192 191 190 193 199 204 198 186 179 176 177 172 165 159 152 141 130 118 107 97 84 78 64 37 19
185 185 186 185 186 189 192 192 190 190 192 196 200 201 202 202 204 206 205 204 205 206 205 206 206 206 206 204 201 199 198 196 196 198 198 195 192 191 190 190 193 197 204 202 188 176 170 169 172 176 173 166 156 145 137 128 120 109 96 88 66 35 12
183 183 184 184 185 188 190 190 188 188 191 195 198 200 199 200 203 204 204 204 205 206 206 205 206 205 204 204 203 202 199 197 198 199 199 199 198 194 190 191 194 198 202 195 181 173 172 171 171 176 178 176 169 159 147 136 125 112 102 93 67 40 16
181 182 182 183 184 186 187 188 187 188 191 196 198 196 196 199 203 203 203 204 205 206 206 205 205 204 203 204 204 203 201 200 201 200 200 202 202 196 193 194 194 191 190 188 183 181 182 175 167 167 177 183 183 181 169 147 126 112 110 96 57 36 20
180 180 181 182 183 185 187 189 190 191 192 194 194 192 194 199 202 203 204 205 206 206 206 205 204 203 203 204 204 202 202 203 205 205 203 203 202 200 200 201 198 192 187 189 192 195 192 180 167 161 174 185 191 194 179 159 134 121 125 103 41 29 24
180 179 180 182 183 185 188 190 192 192 192 192 192 192 195 199 200 202 206 206 205 206 205 204 203 202 203 204 203 202 204 206 207 207 205 205 205 205 207 208 205 200 195 194 198 199 194 182 171 161 171 190 204 207 192 180 162 146 141 114 31 26 27
181 178 179 181 184 187 190 192 191 192 192 191 191 192 195 197 199 202 205 205 205 205 205 203 201 200 202 204 202 202 205 207 207 206 206 207 208 208 211 214 210 207 205 201 198 198 196 187 182 185 190 204 218 216 205 201 195 177 163 133 23 26 27
180 178 178 181 185 189 192 193 193 193 190 187 188 191 193 195 199 202 203 203 203 203 203 202 200 199 200 202 200 201 205 207 206 206 207 209 209 209 214 218 215 214 214 211 204 201 202 202 202 213 224 225 225 218 210 208 201 190 194 204 13 22 19
180 177 178 183 189 192 194 195 196 194 189 186 190 193 192 193 197 201 203 203 202 202 202 200 198 199 201 201 199 201 205 206 205 206 207 208 210 213 217 220 221 221 219 216 212 209 210 213 215 225 244 243 227 217 213 211 202 199 208 216 228 7 0
181 177 180 189 195 196 196 196 196 191 187 187 190 190 189 191 195 199 202 203 202 203 203 199 197 199 200 200 201 203 205 204 204 206 207 208 210 214 218 220 224 228 226 220 217 217 217 219 221 233 249 243 227 216 210 204 197 196 202 207 213 288 329
179 178 183 193 198 199 198 196 190 183 183 187 190 190 191 193 194 196 198 201 202 203 203 199 197 199 200 201 203 204 204 204 205 207 208 208 211 214 217 221 226 232 230 224 220 221 221 222 227 236 245 240 228 215 202 195 193 194 198 204 223 276 306
180 184 189 193 195 195 195 193 185 182 184 187 189 190 192 191 189 191 196 199 201 202 204 202 199 199 200 202 204 205 205 205 207 208 208 210 214 216 219 224 228 228 224 219 220 222 223 225 230 236 244 248 236 218 206 201 201 204 209 222 244 271 291
183 189 193 193 191 191 191 189 185 184 185 184 183 185 186 185 186 190 196 199 201 202 204 205 202 200 201 203 205 206 207 208 210 209 208 210 215 217 221 225 224 217 211 213 218 222 224 229 232 236 245 251 237 224 217 212 213 218 227 240 257 269 282
183 188 191 191 189 187 185 184 183 183 183 180 178 179 182 183 184 187 191 196 200 202 204 205 205 204 203 203 204 207 209 212 212 211 211 214 218 219 220 221 216 210 211 216 220 223 226 231 235 237 244 244 233 226 226 223 222 228 239 252 261 267 276
182 186 186 185 185 182 179 177 177 179 181 179 176 177 183 185 185 184 186 190 196 200 202 203 205 207 207 205 205 208 211 214 214 213 216 221 225 223 220 218 215 216 221 223 223 226 231 235 238 239 239 236 231 229 231 232 233 238 247 255 263 268 274